Location: Gwatt
(46.7204°N, 7.6223°E)
Time: 01:12:44
(UTC+00:00)

Vanguard 3 - Pass Details

Date: 27 January 2021
Orbit: 508 x 3262 km, 33.4° (Epoch: 03 March)

Event Time Altitude Azimuth Distance (km) Brightness Sun altitude
Exits shadow 02:50:04 23° 135° (SE) 2,456 9.7 -42.4°
Drops below altitude 10° 02:55:12 10° 108° (ESE) 3,882 11.1 -41.5°
Sets 03:00:05 0° 98° (E) 5,412 12.1 -40.8°
